Flag for Greece Weather past 2 weeks in Nea Smyrni, Greece

Now
82 °F

Passing clouds.


Feels Like: 81 °F
Forecast: 76 / 88 °F
Wind: 13 mph from Northeast

Location: Eleftherios Venizelos International Airport

Current Time: Aug 30, 2015 at 11:21:54 PM

Latest Report: Aug 30, 2015 at 10:50 PM


Visibility: N/A

Pressure: 30.07 "Hg

Humidity: 32%

Dew point: 50 °F

Location of Nea SmyrniLocation

Historic Weather in Nea Smyrni — Graph

°F

Nea Smyrni temperature yesterday

Maximum temperature yesterday: 88 °F (at 12:50 PM)
Minimum temperature yesterday: 77 °F (at 5:50 AM)
Average temperature yesterday: 83 °F

Past Weeks' High & Low Weather Summary

 TemperatureHumidityPressure
High97 °F (Aug 17, 2:50 PM)83% (Aug 16, 4:50 AM)30.09 "Hg (Aug 16, 4:50 AM)
Low68 °F (Aug 18, 5:50 AM)16% (Aug 28, 8:50 PM)29.77 "Hg (Aug 17, 3:20 PM)
Average81 °F45%29.94 "Hg
* Reported Aug 15 9:20 PM — Aug 30 9:50 PM, Nea Smyrni, Weather by CustomWeather, © 2015

Note: Actual official high and low records may vary slightly from our data, if they occured in-between our weather recording intervals... More about our weather records

Advertising

Nea Smyrni weather history for previous 24 hours

 ConditionsComfort  
Time TempWeatherWind HumidityBarometerVisibility
9:50 PM
Sun, Aug 30
82 °FPassing clouds.12 mph30%30.04 "HgN/A
9:20 PM84 °FPassing clouds.10 mph29%30.04 "HgN/A
8:50 PM82 °FPassing clouds.12 mph30%30.04 "HgN/A
8:20 PM84 °FPassing clouds.14 mph31%30.04 "HgN/A
7:50 PM84 °FPassing clouds.12 mph31%30.04 "HgN/A
7:20 PM86 °FSunny.16 mph29%30.04 "Hg10 mi
6:50 PM86 °FSunny.18 mph29%30.04 "Hg10 mi
6:20 PM88 °FSunny.21 mph27%30.04 "Hg10 mi
5:50 PM88 °FSunny.22 mph27%30.04 "Hg10 mi
5:20 PM90 °FSunny.25 mph26%30.04 "Hg10 mi
4:50 PM90 °FSunny.26 mph26%30.04 "Hg10 mi
4:20 PM91 °FSunny.29 mph26%30.04 "Hg10 mi
3:50 PM91 °FSunny.30 mph24%30.04 "Hg10 mi
3:20 PM91 °FSunny.26 mph23%30.07 "Hg10 mi
2:50 PM90 °FSunny.20 mph24%30.07 "Hg10 mi
2:20 PM90 °FSunny.22 mph24%30.07 "Hg10 mi
1:50 PM90 °FSunny.22 mph26%30.07 "Hg10 mi
1:20 PM91 °FSunny.22 mph23%30.07 "Hg10 mi
12:50 PM90 °FSunny.23 mph24%30.07 "Hg10 mi
12:20 PM90 °FSunny.22 mph24%30.09 "Hg10 mi
11:50 AM90 °FSunny.18 mph26%30.09 "Hg10 mi
11:20 AM90 °FSunny.23 mph26%30.09 "Hg10 mi
10:50 AM88 °FSunny.23 mph27%30.09 "Hg10 mi
10:20 AM86 °FSunny.21 mph31%30.09 "Hg10 mi
9:50 AM86 °FSunny.18 mph31%30.09 "Hg10 mi
9:20 AM84 °FSunny.18 mph33%30.09 "Hg10 mi
8:50 AM82 °FSunny.15 mph37%30.09 "Hg10 mi
8:20 AM81 °FSunny.13 mph37%30.09 "Hg10 mi
7:50 AM81 °FClear.10 mph37%30.07 "Hg10 mi
6:50 AM81 °FClear.12 mph34%30.07 "Hg10 mi
6:20 AM81 °FClear.17 mph37%30.07 "Hg10 mi
5:50 AM79 °FClear.15 mph39%30.07 "Hg10 mi
5:20 AM79 °FClear.16 mph39%30.07 "Hg10 mi
4:50 AM81 °FClear.14 mph34%30.07 "Hg10 mi
4:20 AM79 °FClear.12 mph39%30.07 "Hg10 mi
3:50 AM79 °FClear.16 mph39%30.07 "Hg10 mi
3:20 AM79 °FClear.10 mph39%30.07 "Hg10 mi
2:50 AM79 °FClear.10 mph39%30.07 "Hg10 mi
2:20 AM79 °FPassing clouds.9 mph39%30.09 "HgN/A
1:50 AM81 °FPassing clouds.8 mph34%30.09 "HgN/A
1:20 AM81 °FPassing clouds.10 mph37%30.09 "HgN/A
12:50 AM81 °FClear.15 mph37%30.09 "Hg10 mi
11:50 PM
Sat, Aug 29
81 °FPassing clouds.10 mph37%30.09 "HgN/A
11:20 PM82 °FClear.9 mph32%30.09 "Hg10 mi
Weather by CustomWeather, © 2015

See weather overviewHow to use our weather pages